Location: Boss Branch
(32.3799°N, 97.2508°W)
Time: 09:30:55
(UTC+00:00)

Vanguard 3 - Visible Passes

Search period start: 07 November 2024 00:00
Search period end: 17 November 2024 00:00
Orbit: 508 x 3221 km, 33.3° (Epoch: 06 November)

Date Brightness Start Highest point End Pass type
(mag) Time Alt. Az. Time Alt. Az. Time Alt. Az.
07 Nov 6.8 01:14:47 10° W 01:21:38 82° SSW 01:22:32 60° ESE visible
07 Nov 7.7 23:52:51 10° W 00:02:09 83° N 00:07:22 10° E visible
08 Nov 8.3 02:07:46 10° W 02:11:48 34° WSW 02:11:48 34° WSW visible
09 Nov 7.3 00:46:17 10° W 00:54:14 80° SSW 00:56:58 28° ESE visible
10 Nov 7.6 01:39:29 10° W 01:45:56 46° SSW 01:46:17 45° SSW visible
11 Nov 7.7 00:17:31 10° W 00:26:42 78° SSW 00:31:30 13° ESE visible
11 Nov 9.4 02:33:06 10° W 02:35:38 17° WSW 02:35:38 17° WSW visible
12 Nov 8.1 01:10:56 10° W 01:18:24 46° SSW 01:20:54 27° SSE visible
12 Nov 8.1 23:48:31 10° WNW 23:59:02 76° SSW 00:04:49 10° ESE visible
13 Nov 9.0 02:04:47 10° W 02:09:32 21° SW 02:10:20 20° SSW visible
14 Nov 8.5 00:42:07 10° W 00:50:45 47° SSW 00:55:43 11° SE visible
15 Nov 9.3 01:36:11 10° W 01:41:49 22° SW 01:45:17 12° S visible
16 Nov 8.9 00:13:04 10° WNW 00:22:56 47° SSW 00:28:39 10° SE visible
